| time (UTC) | temp F | wind direction | speed MPH | gust MPH | rain 1hr in | rain 24hr in | rain mn in | humidity % | barometer mb |
| 20260507083224 | 41 | 6 | 7.0 | 14.0 | 0.00 | 0.00 | 0.00 | 80 | 1012.9 |
| 20260507082222 | 41 | 6 | 8.0 | 16.0 | 0.00 | 0.00 | 0.00 | 80 | 1013.0 |
| 20260507081211 | 41 | 6 | 8.0 | 18.0 | 0.00 | 0.00 | 0.00 | 80 | 1013.1 |
| 20260507080220 | 41 | 6 | 9.0 | 19.0 | 0.00 | 0.00 | 0.00 | 81 | 1013.2 |
| 20260507075203 | 41 | 6 | 9.0 | 17.0 | 0.00 | 0.00 | 0.00 | 81 | 1013.4 |
| 20260507074159 | 41 | 6 | 10.0 | 18.0 | 0.00 | 0.00 | 0.00 | 81 | 1013.4 |
| 20260507072225 | 42 | 6 | 8.0 | 19.0 | 0.00 | 0.00 | 0.00 | 80 | 1013.9 |
| 20260507071228 | 42 | 6 | 8.0 | 18.0 | 0.00 | 0.00 | 0.00 | 81 | 1014.2 |
| 20260507070223 | 42 | 6 | 10.0 | 19.0 | 0.00 | 0.00 | 0.00 | 80 | 1014.4 |
| 20260507065219 | 42 | 6 | 8.0 | 17.0 | 0.00 | 0.00 | 0.00 | 80 | 1014.5 |
| 20260507064228 | 42 | 6 | 8.0 | 19.0 | 0.00 | 0.00 | 0.00 | 80 | 1014.5 |
| 20260507063240 | 42 | 6 | 8.0 | 16.0 | 0.00 | 0.00 | 0.00 | 80 | 1014.6 |
| 20260507062223 | 42 | 6 | 6.0 | 17.0 | 0.00 | 0.00 | 0.00 | 79 | 1014.7 |
| 20260507061205 | 43 | 214 | 7.0 | 17.0 | 0.00 | 0.00 | 0.00 | 79 | 1014.7 |
| 20260507060204 | 43 | 233 | 8.0 | 16.0 | 0.00 | 0.00 | 0.00 | 78 | 1014.8 |
| 20260507055222 | 43 | 214 | 8.0 | 17.0 | 0.00 | 0.00 | 0.00 | 78 | 1014.8 |
| 20260507054220 | 43 | 216 | 9.0 | 21.0 | 0.00 | 0.00 | 0.00 | 77 | 1014.9 |
| 20260507052210 | 44 | 224 | 8.0 | 17.0 | 0.00 | 0.00 | 0.00 | 76 | 1015.1 |
| 20260507051209 | 44 | 216 | 8.0 | 17.0 | 0.00 | 0.00 | 0.00 | 75 | 1015.1 |
| 20260507050233 | 44 | 219 | 8.0 | 17.0 | 0.00 | 0.00 | 0.00 | 74 | 1015.1 |
| 20260507045220 | 44 | 218 | 8.0 | 18.0 | 0.00 | 0.00 | 0.00 | 72 | 1015.1 |
| 20260507044230 | 44 | 212 | 10.0 | 15.0 | 0.00 | 0.00 | 0.00 | 70 | 1015.3 |
| 20260507043206 | 44 | 211 | 7.0 | 14.0 | 0.00 | 0.00 | 0.00 | 68 | 1015.4 |
| 20260507042209 | 45 | 211 | 9.0 | 16.0 | 0.00 | 0.00 | 0.00 | 66 | 1015.6 |
| 20260507041157 | 45 | 210 | 7.0 | 14.0 | 0.00 | 0.00 | 0.00 | 65 | 1015.6 |
| 20260507040209 | 46 | 215 | 6.0 | 13.0 | 0.00 | 0.00 | 0.00 | 63 | 1015.7 |
| 20260507035213 | 46 | 220 | 5.0 | 11.0 | 0.00 | 0.00 | 0.00 | 62 | 1015.7 |
| 20260507034207 | 46 | 208 | 6.0 | 14.0 | 0.00 | 0.00 | 0.00 | 61 | 1015.9 |
| 20260507033241 | 47 | 205 | 6.0 | 15.0 | 0.00 | 0.00 | 0.00 | 61 | 1016.0 |
| 20260507032208 | 47 | 236 | 7.0 | 15.0 | 0.00 | 0.00 | 0.00 | 60 | 1016.0 |
| 20260507031215 | 48 | 216 | 5.0 | 15.0 | 0.00 | 0.00 | 0.00 | 60 | 1016.1 |
| 20260507030215 | 48 | 214 | 6.0 | 13.0 | 0.00 | 0.00 | 0.00 | 60 | 1016.1 |
| 20260507025223 | 48 | 227 | 7.0 | 15.0 | 0.00 | 0.00 | 0.00 | 60 | 1016.0 |
| 20260507024203 | 48 | 212 | 7.0 | 18.0 | 0.00 | 0.00 | 0.00 | 60 | 1015.8 |
| 20260507021157 | 49 | 198 | 6.0 | 15.0 | 0.00 | 0.00 | 0.00 | 61 | 1015.8 |
| 20260507020224 | 50 | 6 | 8.0 | 16.0 | 0.00 | 0.00 | 0.00 | 61 | 1016.0 |
| 20260507015233 | 50 | 224 | 7.0 | 14.0 | 0.00 | 0.00 | 0.00 | 59 | 1015.8 |
| 20260507014156 | 50 | 214 | 7.0 | 13.0 | 0.00 | 0.00 | 0.00 | 57 | 1015.7 |
| 20260507013230 | 51 | 236 | 7.0 | 14.0 | 0.00 | 0.00 | 0.00 | 56 | 1015.6 |
| 20260507012205 | 51 | 248 | 5.0 | 16.0 | 0.00 | 0.00 | 0.00 | 54 | 1015.6 |
| 20260507011208 | 52 | 212 | 6.0 | 16.0 | 0.00 | 0.00 | 0.00 | 53 | 1015.7 |
| 20260507010206 | 52 | 217 | 6.0 | 17.0 | 0.00 | 0.00 | 0.00 | 53 | 1015.6 |
| 20260507005210 | 53 | 212 | 10.0 | 16.0 | 0.00 | 0.00 | 0.00 | 50 | 1015.6 |
| 20260507004239 | 53 | 258 | 7.0 | 15.0 | 0.00 | 0.00 | 0.00 | 49 | 1015.5 |
| 20260507003234 | 53 | 255 | 3.0 | 13.0 | 0.00 | 0.00 | 0.00 | 49 | 1015.5 |
| 20260507002220 | 53 | 250 | 6.0 | 17.0 | 0.00 | 0.00 | 0.00 | 48 | 1015.5 |
| 20260507001157 | 54 | 261 | 8.0 | 15.0 | 0.00 | 0.00 | 0.00 | 47 | 1015.5 |
| 20260507000205 | 54 | 253 | 8.0 | 12.0 | 0.00 | 0.00 | 0.00 | 46 | 1015.6 |
| 20260506234240 | 54 | 238 | 6.0 | 14.0 | 0.00 | 0.00 | 0.00 | 46 | 1015.8 |
| 20260506233219 | 54 | 251 | 6.0 | 16.0 | 0.00 | 0.00 | 0.00 | 45 | 1015.9 |
| 20260506232201 | 54 | 275 | 9.0 | 14.0 | 0.00 | 0.00 | 0.00 | 45 | 1015.9 |
| 20260506231220 | 53 | 263 | 7.0 | 13.0 | 0.00 | 0.01 | 0.00 | 46 | 1016.1 |
| 20260506230231 | 53 | 263 | 3.0 | 10.0 | 0.00 | 0.01 | 0.00 | 47 | 1016.1 |
| 20260506225237 | 53 | 206 | 4.0 | 11.0 | 0.00 | 0.01 | 0.00 | 45 | 1016.2 |
| 20260506224218 | 54 | 262 | 1.0 | 10.0 | 0.00 | 0.01 | 0.00 | 45 | 1016.2 |
| 20260506223206 | 54 | 257 | 4.0 | 12.0 | 0.00 | 0.01 | 0.00 | 43 | 1016.2 |
| 20260506222220 | 54 | 216 | 7.0 | 16.0 | 0.00 | 0.01 | 0.00 | 43 | 1016.2 |
| 20260506221206 | 54 | 209 | 8.0 | 13.0 | 0.00 | 0.01 | 0.00 | 42 | 1016.3 |
| 20260506220202 | 54 | 270 | 2.0 | 15.0 | 0.00 | 0.01 | 0.00 | 39 | 1016.4 |
| 20260506215209 | 55 | 226 | 6.0 | 18.0 | 0.00 | 0.01 | 0.00 | 40 | 1016.5 |
| 20260506214232 | 55 | 244 | 7.0 | 13.0 | 0.00 | 0.01 | 0.00 | 39 | 1016.3 |
| 20260506213232 | 55 | 199 | 1.0 | 9.0 | 0.00 | 0.01 | 0.00 | 40 | 1016.4 |
| 20260506212240 | 55 | 278 | 5.0 | 11.0 | 0.00 | 0.01 | 0.00 | 39 | 1016.6 |
| 20260506211207 | 55 | 242 | 6.0 | 10.0 | 0.00 | 0.01 | 0.00 | 40 | 1016.6 |
| 20260506210223 | 54 | 245 | 3.0 | 11.0 | 0.00 | 0.01 | 0.00 | 40 | 1016.8 |
| 20260506205220 | 54 | 271 | 1.0 | 10.0 | 0.00 | 0.01 | 0.00 | 41 | 1017.0 |
| 20260506204200 | 54 | 312 | 5.0 | 12.0 | 0.00 | 0.01 | 0.00 | 40 | 1017.1 |
| 20260506202235 | 54 | 300 | 5.0 | 12.0 | 0.00 | 0.01 | 0.00 | 37 | 1017.3 |
| 20260506201226 | 55 | 259 | 3.0 | 9.0 | 0.00 | 0.01 | 0.00 | 39 | 1017.3 |
| 20260506200209 | 55 | 243 | 7.0 | 13.0 | 0.00 | 0.01 | 0.00 | 39 | 1017.3 |
| 20260506195230 | 54 | 223 | 6.0 | 15.0 | 0.00 | 0.01 | 0.00 | 41 | 1017.4 |
| 20260506194236 | 53 | 256 | 6.0 | 12.0 | 0.00 | 0.01 | 0.00 | 42 | 1017.6 |
| 20260506192208 | 53 | 251 | 6.0 | 12.0 | 0.00 | 0.01 | 0.00 | 41 | 1017.8 |
| 20260506191227 | 53 | 259 | 7.0 | 11.0 | 0.00 | 0.01 | 0.00 | 42 | 1018.0 |
| 20260506190230 | 53 | 313 | 2.0 | 5.0 | 0.00 | 0.01 | 0.00 | 39 | 1017.9 |
| 20260506185240 | 52 | 298 | 3.0 | 13.0 | 0.00 | 0.01 | 0.00 | 42 | 1018.2 |
| 20260506184239 | 53 | 235 | 4.0 | 11.0 | 0.00 | 0.01 | 0.00 | 39 | 1018.4 |
| 20260506182212 | 54 | 304 | 3.0 | 12.0 | 0.00 | 0.01 | 0.00 | 41 | 1018.6 |
| 20260506180208 | 52 | 225 | 5.0 | 12.0 | 0.00 | 0.01 | 0.00 | 43 | 1018.7 |
| 20260506175241 | 51 | 232 | 5.0 | 11.0 | 0.00 | 0.01 | 0.00 | 41 | 1018.9 |
| 20260506174227 | 51 | 248 | 4.0 | 10.0 | 0.00 | 0.01 | 0.00 | 43 | 1018.9 |
| 20260506173231 | 50 | 177 | 4.0 | 6.0 | 0.00 | 0.01 | 0.00 | 43 | 1018.8 |
| 20260506171217 | 49 | 284 | 3.0 | 7.0 | 0.00 | 0.01 | 0.00 | 43 | 1018.8 |
| 20260506170237 | 49 | 6 | 2.0 | 4.0 | 0.00 | 0.01 | 0.00 | 42 | 1018.9 |
| 20260506164222 | 50 | 18 | 3.0 | 9.0 | 0.00 | 0.01 | 0.00 | 43 | 1018.8 |
| 20260506163218 | 51 | 25 | 3.0 | 5.0 | 0.00 | 0.01 | 0.00 | 42 | 1018.7 |
| 20260506162227 | 51 | 37 | 2.0 | 11.0 | 0.00 | 0.01 | 0.00 | 43 | 1018.7 |
| 20260506161204 | 52 | 6 | 4.0 | 10.0 | 0.00 | 0.01 | 0.00 | 41 | 1018.7 |
| 20260506154214 | 50 | 183 | 2.0 | 5.0 | 0.00 | 0.01 | 0.00 | 45 | 1018.9 |
| 20260506152221 | 50 | 1 | 4.0 | 6.0 | 0.00 | 0.01 | 0.00 | 44 | 1019.0 |
| 20260506151204 | 50 | 6 | 2.0 | 4.0 | 0.00 | 0.01 | 0.00 | 42 | 1019.0 |
| 20260506144222 | 47 | 6 | 1.0 | 4.0 | 0.00 | 0.01 | 0.00 | 46 | 1018.7 |
| 20260506143216 | 45 | 340 | 0.0 | 2.0 | 0.00 | 0.01 | 0.00 | 50 | 1018.8 |
| 20260506142239 | 45 | 328 | 1.0 | 3.0 | 0.00 | 0.01 | 0.00 | 51 | 1018.8 |
| 20260506141207 | 45 | 351 | 0.0 | 3.0 | 0.00 | 0.01 | 0.00 | 56 | 1018.8 |
| 20260506134228 | 41 | 327 | 1.0 | 3.0 | 0.00 | 0.01 | 0.00 | 68 | 1018.6 |
| 20260506133214 | 41 | 334 | 1.0 | 4.0 | 0.00 | 0.01 | 0.00 | 70 | 1018.7 |
| 20260506132228 | 40 | 6 | 1.0 | 3.0 | 0.00 | 0.01 | 0.00 | 70 | 1018.7 |
| 20260506131208 | 39 | 6 | 2.0 | 4.0 | 0.00 | 0.01 | 0.00 | 72 | 1018.7 |
| 20260506130231 | 39 | 339 | 1.0 | 3.0 | 0.00 | 0.01 | 0.00 | 74 | 1018.4 |
| 20260506125214 | 39 | 328 | 2.0 | 3.0 | 0.00 | 0.01 | 0.00 | 76 | 1018.1 |
| 20260506124227 | 38 | 328 | 1.0 | 3.0 | 0.00 | 0.01 | 0.00 | 76 | 1018.0 |
| 20260506123200 | 38 | 328 | 2.0 | 3.0 | 0.00 | 0.01 | 0.00 | 77 | 1017.8 |
| 20260506122217 | 38 | 328 | 2.0 | 3.0 | 0.00 | 0.01 | 0.00 | 77 | 1017.7 |
| 20260506121238 | 38 | 328 | 2.0 | 3.0 | 0.00 | 0.01 | 0.00 | 77 | 1017.7 |
| 20260506115220 | 38 | 328 | 2.0 | 4.0 | 0.00 | 0.01 | 0.00 | 80 | 1017.3 |
| 20260506114220 | 38 | 328 | 2.0 | 3.0 | 0.00 | 0.01 | 0.00 | 80 | 1017.3 |
| 20260506113221 | 38 | 328 | 2.0 | 3.0 | 0.00 | 0.01 | 0.00 | 81 | 1017.2 |
| 20260506112227 | 38 | 328 | 2.0 | 4.0 | 0.00 | 0.01 | 0.00 | 81 | 1017.1 |
| 20260506111238 | 38 | 327 | 2.0 | 3.0 | 0.00 | 0.01 | 0.00 | 82 | 1017.1 |
| 20260506105230 | 38 | 305 | 2.0 | 4.0 | 0.00 | 0.01 | 0.00 | 85 | 1017.1 |
| 20260506104206 | 38 | 305 | 2.0 | 3.0 | 0.00 | 0.01 | 0.00 | 86 | 1016.9 |
| 20260506103211 | 39 | 305 | 2.0 | 3.0 | 0.00 | 0.01 | 0.00 | 86 | 1016.8 |
| 20260506102220 | 39 | 305 | 2.0 | 3.0 | 0.00 | 0.01 | 0.00 | 86 | 1016.7 |
| 20260506101203 | 39 | 305 | 2.0 | 4.0 | 0.00 | 0.01 | 0.00 | 85 | 1016.6 |
| 20260506100237 | 39 | 305 | 2.0 | 4.0 | 0.00 | 0.01 | 0.00 | 85 | 1016.5 |
| 20260506095159 | 39 | 305 | 2.0 | 3.0 | 0.00 | 0.01 | 0.00 | 85 | 1016.5 |
| 20260506094233 | 39 | 305 | 2.0 | 3.0 | 0.00 | 0.01 | 0.00 | 86 | 1016.6 |
| 20260506093157 | 40 | 305 | 2.0 | 3.0 | 0.00 | 0.01 | 0.00 | 87 | 1016.5 |
| 20260506092207 | 40 | 305 | 2.0 | 4.0 | 0.00 | 0.01 | 0.00 | 86 | 1016.5 |
| 20260506090158 | 40 | 305 | 2.0 | 4.0 | 0.00 | 0.01 | 0.00 | 86 | 1016.3 |
| 20260506085239 | 40 | 308 | 3.0 | 5.0 | 0.00 | 0.01 | 0.00 | 86 | 1016.3 |
| 20260506084202 | 40 | 6 | 2.0 | 5.0 | 0.00 | 0.01 | 0.00 | 86 | 1016.3 |